グレーラー彗星

P/2019 V2 ( Groeller )

English version
Home page
Updated on February 19, 2020

---------------------------------------------------------------------

・ プロフィール

発見日 2019年11月3日
発見光度 20.7等
発見者 Hannes Groeller (Mount Lemmon Survey)

・ 軌道要素

Epoch 2020 Nov. 7.0 TT = JDT 2459160.5
T 2020 Oct. 19.36125 TT                                 Bell
q   5.0217102            (2000.0)            P               Q
n   0.04781201     Peri.  335.95589     -0.96517696     -0.25955339
a   7.5181569      Node   189.18327     +0.26065596     -0.94360667
e   0.3320557      Incl.   11.80204     +0.02217911     -0.20552007
P  20.6
From 39 observations 2019 Nov. 3-2020 Feb. 1, mean residual 0".5.

・ 光度変化

        m1 = 9.5 + 5 logΔ + 10.0 log r

---------------------------------------------------------------------

軌道要素はM.P.E.C. 2020-C98に掲載されたものです。
光度グラフはComet for Windowsで作成したものです。

---------------------------------------------------------------------

Copyright(C) Seiichi Yoshida (comet@aerith.net). All rights reserved.